When you browse on this site, cookies collect data to enhance your experience and personalize the content and advertising you see.
Visit our Privacy Policy to learn more. By continuing to use the site, you agree to this use of cookies and data.
  • In Latvia
  • List of Countries
  • For 7 days
  • Water Temperature
  • Satellite Maps
  • Weather Map
  • Weather Widgets
  • user-avatar
    Login

    Hourly Weather Klagenfurt

    Today, 15 July, Monday

    Time Temperature Precipitation Wind Pressure Humidity
    00:00 +11°C° 0 mm 1 mps 688 mmHg 89%
    01:00 +11°C° 0 mm 1 mps 688 mmHg 91%
    02:00 +11°C° 0 mm 1 mps 688 mmHg 91%
    03:00 +11°C° 0 mm 1 mps 687 mmHg 91%
    04:00 +10°C° 0 mm 0 mps 687 mmHg 92%
    05:00 +12°C° 0 mm 1 mps 687 mmHg 90%
    06:00 +13°C° 0 mm 1 mps 688 mmHg 88%
    07:00 +13°C° 0 mm 0 mps 688 mmHg 87%
    08:00 +16°C° 0.1 mm 1 mps 688 mmHg 79%
    09:00 +19°C° 0.1 mm 1 mps 688 mmHg 71%
    10:00 +19°C° 0.1 mm 2 mps 689 mmHg 62%
    11:00 +20°C° 0.3 mm 2 mps 688 mmHg 59%
    12:00 +21°C° 0.3 mm 2 mps 688 mmHg 55%
    13:00 +21°C° 0 mm 2 mps 689 mmHg 50%
    14:00 +21°C° 0.1 mm 2 mps 689 mmHg 50%
    15:00 +21°C° 0.1 mm 2 mps 689 mmHg 49%
    16:00 +21°C° 0.1 mm 2 mps 689 mmHg 48%
    17:00 +20°C° 0.1 mm 1 mps 688 mmHg 58%
    18:00 +19°C° 0.1 mm 1 mps 688 mmHg 67%
    19:00 +15°C° 0.1 mm 0 mps 688 mmHg 76%
    20:00 +14°C° 0 mm 0 mps 688 mmHg 78%
    21:00 +14°C° 0 mm 1 mps 688 mmHg 80%
    22:00 +12°C° 0 mm 1 mps 688 mmHg 81%
    23:00 +12°C° 0 mm 1 mps 688 mmHg 83%

    Tomorrow, 16 July, Tuesday

    Time Temperature Precipitation Wind Pressure Humidity
    00:00 +11°C° 0 mm 1 mps 688 mmHg 84%
    01:00 +11°C° 0 mm 1 mps 688 mmHg 86%
    02:00 +11°C° 0 mm 1 mps 688 mmHg 87%
    03:00 +10°C° 0 mm 1 mps 688 mmHg 88%
    04:00 +10°C° 0 mm 1 mps 688 mmHg 89%
    05:00 +12°C° 0 mm 1 mps 688 mmHg 84%
    06:00 +14°C° 0 mm 1 mps 689 mmHg 78%
    07:00 +15°C° 0 mm 1 mps 689 mmHg 73%
    08:00 +18°C° 0 mm 1 mps 690 mmHg 64%
    09:00 +21°C° 0 mm 1 mps 690 mmHg 55%
    10:00 +23°C° 0 mm 1 mps 691 mmHg 46%
    11:00 +24°C° 0 mm 1 mps 691 mmHg 43%
    12:00 +25°C° 0 mm 1 mps 691 mmHg 40%
    13:00 +26°C° 0 mm 1 mps 691 mmHg 37%
    14:00 +26°C° 0 mm 1 mps 690 mmHg 39%
    15:00 +25°C° 0 mm 1 mps 690 mmHg 40%
    16:00 +25°C° 0 mm 1 mps 690 mmHg 42%
    17:00 +23°C° 0 mm 1 mps 690 mmHg 53%
    18:00 +21°C° 0 mm 1 mps 689 mmHg 64%
    19:00 +20°C° 0 mm 1 mps 689 mmHg 75%
    20:00 +18°C° 0 mm 1 mps 689 mmHg 78%
    21:00 +16°C° 0 mm 1 mps 689 mmHg 80%
    22:00 +14°C° 0 mm 1 mps 690 mmHg 83%
    23:00 +14°C° 0 mm 1 mps 690 mmHg 83%

    Day after tomorrow, 17 July, Wednesday

    Time Temperature Precipitation Wind Pressure Humidity
    00:00 +13°C° 0 mm 1 mps 690 mmHg 84%
    01:00 +12°C° 0 mm 0 mps 689 mmHg 84%
    02:00 +13°C° 0 mm 1 mps 689 mmHg 86%
    03:00 +12°C° 0 mm 1 mps 689 mmHg 87%
    04:00 +12°C° 0 mm 1 mps 689 mmHg 88%
    05:00 +13°C° 0 mm 0 mps 689 mmHg 83%
    06:00 +14°C° 0 mm 0 mps 690 mmHg 78%
    07:00 +16°C° 0 mm 0 mps 690 mmHg 73%
    08:00 +18°C° 0 mm 0 mps 690 mmHg 67%
    09:00 +22°C° 0 mm 1 mps 690 mmHg 60%
    10:00 +24°C° 0 mm 1 mps 690 mmHg 53%
    11:00 +24°C° 0 mm 1 mps 690 mmHg 51%
    12:00 +25°C° 0 mm 1 mps 690 mmHg 49%
    13:00 +26°C° 0 mm 1 mps 690 mmHg 46%
    14:00 +26°C° 0 mm 2 mps 690 mmHg 47%
    15:00 +25°C° 0 mm 2 mps 689 mmHg 47%
    16:00 +25°C° 0 mm 2 mps 689 mmHg 48%
    17:00 +24°C° 0.2 mm 2 mps 689 mmHg 59%
    18:00 +22°C° 0.2 mm 1 mps 688 mmHg 70%
    19:00 +20°C° 0.2 mm 1 mps 688 mmHg 81%
    20:00 +19°C° 0.6 mm 1 mps 688 mmHg 84%
    21:00 +18°C° 0.6 mm 1 mps 688 mmHg 87%
    22:00 +15°C° 0.6 mm 0 mps 688 mmHg 90%
    23:00 +14°C° 0.4 mm 0 mps 688 mmHg 91%

    18 July, Thursday

    Time Temperature Precipitation Wind Pressure Humidity
    00:00 +14°C° 0.4 mm 0 mps 688 mmHg 91%
    01:00 +14°C° 0.4 mm 0 mps 688 mmHg 92%
    02:00 +13°C° 0.1 mm 0 mps 687 mmHg 92%
    03:00 +14°C° 0.1 mm 1 mps 687 mmHg 93%
    04:00 +14°C° 0.1 mm 1 mps 687 mmHg 93%
    05:00 +15°C° 0.1 mm 1 mps 687 mmHg 92%
    06:00 +15°C° 0.1 mm 0 mps 688 mmHg 90%
    07:00 +16°C° 0.1 mm 0 mps 688 mmHg 89%
    08:00 +17°C° 0.7 mm 0 mps 688 mmHg 85%
    09:00 +20°C° 0.7 mm 1 mps 688 mmHg 82%
    10:00 +21°C° 0.7 mm 1 mps 689 mmHg 78%
    11:00 +21°C° 1.2 mm 1 mps 689 mmHg 80%
    12:00 +21°C° 1.2 mm 1 mps 688 mmHg 82%
    13:00 +21°C° 1.2 mm 1 mps 688 mmHg 84%
    14:00 +20°C° 1.4 mm 1 mps 688 mmHg 87%
    15:00 +19°C° 1.4 mm 1 mps 688 mmHg 90%
    16:00 +18°C° 1.4 mm 1 mps 688 mmHg 94%
    17:00 +18°C° 0.3 mm 1 mps 688 mmHg 94%
    18:00 +18°C° 0.3 mm 1 mps 688 mmHg 95%
    19:00 +15°C° 0.3 mm 0 mps 688 mmHg 95%
    20:00 +14°C° 0 mm 0 mps 688 mmHg 95%
    21:00 +14°C° 0 mm 1 mps 688 mmHg 94%
    22:00 +13°C° 0 mm 1 mps 688 mmHg 94%
    23:00 +13°C° 0 mm 1 mps 688 mmHg 94%

    19 July, Friday

    Time Temperature Precipitation Wind Pressure Humidity
    00:00 +13°C° 0 mm 1 mps 688 mmHg 93%
    01:00 +13°C° 0 mm 1 mps 688 mmHg 92%
    02:00 +13°C° 0 mm 1 mps 688 mmHg 92%
    03:00 +12°C° 0 mm 1 mps 688 mmHg 93%
    04:00 +12°C° 0 mm 1 mps 688 mmHg 93%
    05:00 +13°C° 0 mm 1 mps 689 mmHg 92%
    06:00 +14°C° 0 mm 0 mps 689 mmHg 91%
    07:00 +15°C° 0 mm 0 mps 689 mmHg 89%
    08:00 +17°C° 0 mm 0 mps 690 mmHg 79%
    09:00 +21°C° 0 mm 1 mps 690 mmHg 68%
    10:00 +24°C° 0 mm 1 mps 691 mmHg 57%
    11:00 +24°C° 0.6 mm 1 mps 691 mmHg 60%
    12:00 +24°C° 0.6 mm 1 mps 691 mmHg 62%
    13:00 +24°C° 0.6 mm 1 mps 691 mmHg 64%
    14:00 +24°C° 1 mm 1 mps 691 mmHg 68%
    15:00 +23°C° 1 mm 1 mps 691 mmHg 72%
    16:00 +23°C° 1 mm 1 mps 690 mmHg 76%
    17:00 +22°C° 0.5 mm 1 mps 691 mmHg 80%
    18:00 +21°C° 0.5 mm 1 mps 691 mmHg 85%
    19:00 +17°C° 0.5 mm 0 mps 691 mmHg 89%
    20:00 +18°C° 0 mm 1 mps 691 mmHg 89%
    21:00 +18°C° 0 mm 1 mps 691 mmHg 90%
    22:00 +16°C° 0 mm 1 mps 691 mmHg 90%
    23:00 +15°C° 0 mm 1 mps 691 mmHg 90%

    20 July, Saturday

    Time Temperature Precipitation Wind Pressure Humidity
    00:00 +15°C° 0 mm 1 mps 691 mmHg 90%
    01:00 +14°C° 0 mm 1 mps 691 mmHg 91%
    02:00 +14°C° 0 mm 1 mps 691 mmHg 91%
    03:00 +14°C° 0 mm 1 mps 691 mmHg 92%
    04:00 +12°C° 0 mm 0 mps 691 mmHg 92%
    05:00 +14°C° 0 mm 0 mps 692 mmHg 90%
    06:00 +15°C° 0 mm 0 mps 692 mmHg 87%
    07:00 +17°C° 0 mm 0 mps 693 mmHg 85%
    08:00 +19°C° 0 mm 0 mps 693 mmHg 75%
    09:00 +21°C° 0 mm 0 mps 694 mmHg 65%
    10:00 +26°C° 0 mm 1 mps 694 mmHg 55%
    11:00 +26°C° 0 mm 1 mps 694 mmHg 52%
    12:00 +27°C° 0 mm 1 mps 694 mmHg 50%
    13:00 +28°C° 0 mm 1 mps 694 mmHg 48%
    14:00 +27°C° 0 mm 1 mps 693 mmHg 49%
    15:00 +27°C° 0 mm 2 mps 693 mmHg 50%
    16:00 +27°C° 0 mm 2 mps 693 mmHg 51%
    17:00 +25°C° 0 mm 2 mps 693 mmHg 61%
    18:00 +24°C° 0 mm 1 mps 693 mmHg 71%
    19:00 +22°C° 0 mm 1 mps 692 mmHg 80%
    20:00 +21°C° 0 mm 1 mps 692 mmHg 83%
    21:00 +20°C° 0 mm 1 mps 692 mmHg 86%
    22:00 +18°C° 0 mm 1 mps 692 mmHg 89%
    23:00 +18°C° 0 mm 1 mps 692 mmHg 89%
    Show more